Location: Cabeza Gorda
(40.0667°N, 4.9667°W)
Time: 20:15:38
(UTC+00:00)

Cosmos 1269 Rocket - Pass Details

Date: 15 January 2026
Orbit: 769 x 775 km, 74.1° (Epoch: 11 February)

Event Time Altitude Azimuth Distance (km) Brightness Sun altitude
Rises 06:12:44 0° 200° (SSW) 3,234 7.2 -16.4°
Reaches altitude 10° 06:15:06 10° 202° (SSW) 2,312 6.4 -16.0°
Maximum altitude 06:20:21 79° 289° (WNW) 792 3.9 -15.0°
Drops below altitude 10° 06:25:40 10° 17° (NNE) 2,329 6.5 -14.1°
Sets 06:28:03 0° 18° (NNE) 3,261 7.3 -13.6°
